| time (UTC) | temp F | wind direction | speed knots | gust knots | rain 1hr in | rain 24hr in | rain mn in | humidity % | barometer mb |
| 20260505092803 | 58 | 7 | 0.9 | 1.7 | 0.00 | 0.00 | 0.00 | 61 | 1011.9 |
| 20260505092318 | 58 | 342 | 0.9 | 2.6 | 0.00 | 0.00 | 0.00 | 60 | 1011.8 |
| 20260505091618 | 58 | 337 | 1.7 | 2.6 | 0.00 | 0.00 | 0.00 | 60 | 1011.8 |
| 20260505090703 | 58 | 333 | 0.0 | 1.7 | 0.00 | 0.00 | 0.00 | 60 | 1011.7 |
| 20260505090004 | 59 | 33 | 0.9 | 1.7 | 0.00 | 0.00 | 0.00 | 59 | 1011.6 |
| 20260505085603 | 59 | 68 | 0.0 | 1.7 | 0.00 | 0.00 | 0.00 | 59 | 1011.5 |
| 20260505085117 | 59 | 79 | 0.0 | 1.7 | 0.00 | 0.00 | 0.00 | 58 | 1011.5 |
| 20260505084203 | 59 | 80 | 0.0 | 1.7 | 0.00 | 0.00 | 0.00 | 58 | 1011.4 |
| 20260505083503 | 59 | 63 | 0.0 | 1.7 | 0.00 | 0.00 | 0.00 | 59 | 1011.4 |
| 20260505083018 | 59 | 45 | 0.0 | 1.7 | 0.00 | 0.00 | 0.00 | 59 | 1011.4 |
| 20260505082103 | 59 | 61 | 0.9 | 1.7 | 0.00 | 0.00 | 0.00 | 59 | 1011.3 |
| 20260505081403 | 59 | 62 | 0.0 | 1.7 | 0.00 | 0.00 | 0.00 | 59 | 1011.2 |
| 20260505080703 | 59 | 66 | 0.0 | 1.7 | 0.00 | 0.00 | 0.00 | 59 | 1011.2 |
| 20260505080003 | 60 | 83 | 0.9 | 1.7 | 0.00 | 0.00 | 0.00 | 59 | 1011.1 |
| 20260505075603 | 60 | 96 | 0.0 | 2.6 | 0.00 | 0.00 | 0.00 | 58 | 1011.0 |
| 20260505074903 | 60 | 107 | 0.9 | 2.6 | 0.00 | 0.00 | 0.00 | 58 | 1010.8 |
| 20260505074203 | 60 | 93 | 0.9 | 2.6 | 0.00 | 0.00 | 0.00 | 59 | 1010.9 |
| 20260505073503 | 60 | 52 | 0.9 | 1.7 | 0.00 | 0.00 | 0.00 | 59 | 1011.0 |
| 20260505072803 | 60 | 21 | 0.9 | 2.6 | 0.00 | 0.00 | 0.00 | 57 | 1010.9 |
| 20260505072103 | 60 | 38 | 0.9 | 4.3 | 0.00 | 0.00 | 0.00 | 57 | 1010.8 |
| 20260505071403 | 60 | 41 | 0.9 | 4.3 | 0.00 | 0.00 | 0.00 | 57 | 1010.8 |
| 20260505070703 | 61 | 51 | 0.0 | 4.3 | 0.00 | 0.00 | 0.00 | 56 | 1010.7 |
| 20260505070004 | 60 | 49 | 1.7 | 4.3 | 0.00 | 0.00 | 0.00 | 57 | 1010.7 |
| 20260505065603 | 61 | 56 | 0.9 | 2.6 | 0.00 | 0.00 | 0.00 | 57 | 1010.6 |
| 20260505064903 | 61 | 76 | 0.0 | 3.5 | 0.00 | 0.00 | 0.00 | 57 | 1010.5 |
| 20260505064203 | 61 | 83 | 0.9 | 3.5 | 0.00 | 0.00 | 0.00 | 57 | 1010.4 |
| 20260505063503 | 61 | 65 | 0.9 | 2.6 | 0.00 | 0.00 | 0.00 | 58 | 1010.5 |
| 20260505062803 | 61 | 86 | 0.0 | 1.7 | 0.00 | 0.00 | 0.00 | 57 | 1010.4 |
| 20260505062103 | 61 | 91 | 1.7 | 2.6 | 0.00 | 0.00 | 0.00 | 57 | 1010.3 |
| 20260505061403 | 61 | 82 | 1.7 | 1.7 | 0.00 | 0.00 | 0.00 | 57 | 1010.3 |
| 20260505060703 | 61 | 91 | 0.9 | 1.7 | 0.00 | 0.00 | 0.00 | 57 | 1010.4 |
| 20260505060003 | 61 | 96 | 0.9 | 2.6 | 0.00 | 0.00 | 0.00 | 57 | 1010.3 |
| 20260505055603 | 61 | 89 | 0.9 | 2.6 | 0.00 | 0.00 | 0.00 | 57 | 1010.3 |
| 20260505054903 | 62 | 93 | 0.0 | 2.6 | 0.00 | 0.00 | 0.00 | 57 | 1010.3 |
| 20260505054203 | 62 | 112 | 0.9 | 3.5 | 0.00 | 0.00 | 0.00 | 58 | 1010.3 |
| 20260505053503 | 62 | 118 | 2.6 | 5.2 | 0.00 | 0.00 | 0.00 | 58 | 1010.3 |
| 20260505052803 | 62 | 119 | 1.7 | 5.2 | 0.00 | 0.00 | 0.00 | 58 | 1010.2 |
| 20260505052103 | 62 | 114 | 1.7 | 5.2 | 0.00 | 0.00 | 0.00 | 59 | 1010.4 |
| 20260505051403 | 62 | 98 | 2.6 | 5.2 | 0.00 | 0.00 | 0.00 | 59 | 1010.4 |
| 20260505050703 | 62 | 105 | 1.7 | 3.5 | 0.00 | 0.00 | 0.00 | 60 | 1010.4 |
| 20260505041403 | 62 | 106 | 0.9 | 5.2 | 0.00 | 0.00 | 0.00 | 60 | 1010.0 |
| 20260505040703 | 61 | 84 | 1.7 | 3.5 | 0.00 | 0.00 | 0.00 | 62 | 1010.2 |
| 20260505040005 | 61 | 32 | 0.0 | 3.5 | 0.00 | 0.00 | 0.00 | 63 | 1010.4 |
| 20260505035603 | 62 | 22 | 0.0 | 3.5 | 0.00 | 0.00 | 0.00 | 63 | 1010.3 |
| 20260505034903 | 62 | 29 | 0.9 | 4.3 | 0.00 | 0.00 | 0.00 | 62 | 1010.2 |
| 20260505034203 | 63 | 77 | 0.0 | 5.2 | 0.00 | 0.00 | 0.00 | 60 | 1010.1 |
| 20260505033503 | 62 | 40 | 0.9 | 5.2 | 0.00 | 0.00 | 0.00 | 62 | 1010.2 |
| 20260505032803 | 63 | 31 | 0.0 | 6.1 | 0.00 | 0.00 | 0.00 | 62 | 1010.3 |
| 20260505032103 | 63 | 97 | 0.9 | 5.2 | 0.00 | 0.00 | 0.00 | 61 | 1010.2 |
| 20260505031403 | 63 | 76 | 0.9 | 5.2 | 0.00 | 0.00 | 0.00 | 60 | 1010.3 |
| 20260505030703 | 63 | 17 | 0.9 | 3.5 | 0.00 | 0.00 | 0.00 | 61 | 1010.4 |
| 20260505030003 | 64 | 68 | 0.9 | 3.5 | 0.00 | 0.00 | 0.00 | 60 | 1010.3 |
| 20260505025603 | 63 | 53 | 0.9 | 2.6 | 0.00 | 0.00 | 0.00 | 61 | 1010.4 |
| 20260505025117 | 63 | 5 | 0.9 | 2.6 | 0.00 | 0.00 | 0.00 | 61 | 1010.5 |
| 20260505024203 | 64 | 29 | 1.7 | 2.6 | 0.00 | 0.00 | 0.00 | 60 | 1010.5 |
| 20260505023503 | 64 | 61 | 0.9 | 2.6 | 0.00 | 0.00 | 0.00 | 59 | 1010.4 |
| 20260505023019 | 64 | 34 | 0.0 | 1.7 | 0.00 | 0.00 | 0.00 | 59 | 1010.4 |
| 20260505022103 | 64 | 28 | 0.9 | 1.7 | 0.00 | 0.00 | 0.00 | 58 | 1010.3 |
| 20260505021403 | 65 | 48 | 1.7 | 1.7 | 0.00 | 0.00 | 0.00 | 57 | 1010.2 |
| 20260505020703 | 65 | 67 | 0.0 | 2.6 | 0.00 | 0.00 | 0.00 | 57 | 1010.1 |
| 20260505020003 | 65 | 49 | 0.9 | 1.7 | 0.00 | 0.00 | 0.00 | 58 | 1010.2 |
| 20260505015603 | 65 | 81 | 0.0 | 2.6 | 0.00 | 0.00 | 0.00 | 57 | 1010.1 |
| 20260505014903 | 65 | 74 | 0.9 | 2.6 | 0.00 | 0.00 | 0.00 | 57 | 1010.0 |
| 20260505014419 | 65 | 90 | 0.0 | 1.7 | 0.00 | 0.00 | 0.00 | 56 | 1010.0 |
| 20260505013504 | 66 | 116 | 0.9 | 0.9 | 0.00 | 0.00 | 0.00 | 57 | 1010.0 |
| 20260505012804 | 66 | 117 | 0.0 | 0.9 | 0.00 | 0.00 | 0.00 | 56 | 1009.8 |
| 20260505012319 | 66 | 115 | 0.0 | 1.7 | 0.00 | 0.00 | 0.00 | 55 | 1009.8 |
| 20260505011404 | 67 | 106 | 0.0 | 1.7 | 0.00 | 0.00 | 0.00 | 54 | 1009.6 |
| 20260505010703 | 68 | 107 | 0.9 | 0.9 | 0.00 | 0.00 | 0.00 | 53 | 1009.5 |
| 20260505010004 | 68 | 244 | 0.9 | 2.6 | 0.00 | 0.00 | 0.00 | 52 | 1009.4 |
| 20260505005604 | 68 | 205 | 0.9 | 2.6 | 0.00 | 0.00 | 0.00 | 52 | 1009.4 |
| 20260505004903 | 68 | 108 | 0.0 | 2.6 | 0.00 | 0.00 | 0.00 | 52 | 1009.2 |
| 20260505004418 | 69 | 106 | 0.9 | 1.7 | 0.00 | 0.00 | 0.00 | 51 | 1009.1 |
| 20260505003503 | 69 | 188 | 1.7 | 3.5 | 0.00 | 0.00 | 0.00 | 49 | 1009.0 |
| 20260505002803 | 70 | 253 | 0.9 | 3.5 | 0.00 | 0.00 | 0.00 | 48 | 1009.0 |
| 20260505002103 | 70 | 254 | 0.0 | 3.5 | 0.00 | 0.00 | 0.00 | 47 | 1008.9 |
| 20260505001403 | 71 | 250 | 0.9 | 2.6 | 0.00 | 0.00 | 0.00 | 47 | 1008.8 |
| 20260505000703 | 71 | 252 | 0.9 | 4.3 | 0.00 | 0.00 | 0.00 | 46 | 1008.7 |
| 20260505000004 | 72 | 249 | 0.0 | 4.3 | 0.00 | 0.00 | 0.00 | 46 | 1008.6 |
| 20260504235817 | 72 | 237 | 0.0 | 2.6 | 0.00 | 0.00 | 0.00 | 46 | 1008.6 |
| 20260504234903 | 72 | 257 | 0.0 | 4.3 | 0.00 | 0.00 | 0.00 | 46 | 1008.6 |
| 20260504234203 | 72 | 262 | 1.7 | 5.2 | 0.00 | 0.00 | 0.00 | 45 | 1008.5 |
| 20260504233503 | 73 | 248 | 1.7 | 4.3 | 0.00 | 0.00 | 0.00 | 44 | 1008.4 |
| 20260504232803 | 73 | 259 | 1.7 | 8.7 | 0.00 | 0.00 | 0.00 | 43 | 1008.4 |
| 20260504232318 | 74 | 279 | 1.7 | 11.3 | 0.00 | 0.00 | 0.00 | 44 | 1008.3 |
| 20260504231403 | 74 | 277 | 0.9 | 9.6 | 0.00 | 0.00 | 0.00 | 44 | 1008.2 |
| 20260504230703 | 74 | 267 | 0.9 | 9.6 | 0.00 | 0.00 | 0.00 | 43 | 1008.1 |
| 20260504230003 | 74 | 265 | 1.7 | 8.7 | 0.00 | 0.00 | 0.00 | 42 | 1008.1 |
| 20260504225817 | 75 | 267 | 1.7 | 8.7 | 0.00 | 0.00 | 0.00 | 42 | 1008.1 |
| 20260504224903 | 75 | 261 | 2.6 | 6.1 | 0.00 | 0.00 | 0.00 | 43 | 1008.0 |
| 20260504224203 | 75 | 268 | 2.6 | 9.6 | 0.00 | 0.00 | 0.00 | 42 | 1008.1 |
| 20260504223503 | 75 | 276 | 2.6 | 11.3 | 0.00 | 0.00 | 0.00 | 43 | 1008.1 |
| 20260504222803 | 75 | 269 | 2.6 | 11.3 | 0.00 | 0.00 | 0.00 | 42 | 1008.1 |
| 20260504222103 | 75 | 271 | 6.1 | 10.4 | 0.00 | 0.00 | 0.00 | 43 | 1008.2 |
| 20260504221403 | 75 | 268 | 8.7 | 10.4 | 0.00 | 0.00 | 0.00 | 42 | 1008.1 |
| 20260504220703 | 76 | 248 | 2.6 | 10.4 | 0.00 | 0.00 | 0.00 | 42 | 1008.0 |
| 20260504220004 | 77 | 261 | 1.7 | 10.4 | 0.00 | 0.00 | 0.00 | 40 | 1007.8 |
| 20260504215603 | 77 | 269 | 1.7 | 7.0 | 0.00 | 0.00 | 0.00 | 39 | 1007.8 |
| 20260504214904 | 76 | 254 | 2.6 | 7.0 | 0.00 | 0.00 | 0.00 | 40 | 1007.9 |
| 20260504214419 | 76 | 255 | 1.7 | 7.0 | 0.00 | 0.00 | 0.00 | 40 | 1007.9 |
| 20260504213503 | 76 | 265 | 3.5 | 7.0 | 0.00 | 0.00 | 0.00 | 40 | 1007.8 |
| 20260504213017 | 76 | 261 | 1.7 | 17.4 | 0.00 | 0.00 | 0.00 | 40 | 1007.9 |
| 20260504212317 | 76 | 262 | 3.5 | 7.0 | 0.00 | 0.00 | 0.00 | 39 | 1007.8 |
| 20260504211403 | 75 | 265 | 1.7 | 12.2 | 0.00 | 0.00 | 0.00 | 41 | 1008.1 |
| 20260504210703 | 75 | 279 | 3.5 | 7.0 | 0.00 | 0.00 | 0.00 | 40 | 1008.2 |
| 20260504210218 | 76 | 262 | 6.1 | 13.0 | 0.00 | 0.00 | 0.00 | 39 | 1008.1 |
| 20260504205818 | 75 | 267 | 1.7 | 13.0 | 0.00 | 0.00 | 0.00 | 40 | 1008.3 |
| 20260504204904 | 76 | 267 | 7.8 | 10.4 | 0.00 | 0.00 | 0.00 | 39 | 1008.3 |
| 20260504204203 | 76 | 256 | 0.0 | 10.4 | 0.00 | 0.00 | 0.00 | 39 | 1008.4 |
| 20260504203503 | 75 | 174 | 2.6 | 7.0 | 0.00 | 0.00 | 0.00 | 40 | 1008.6 |
| 20260504202803 | 75 | 194 | 3.5 | 8.7 | 0.00 | 0.00 | 0.00 | 40 | 1008.5 |
| 20260504202103 | 75 | 259 | 1.7 | 9.6 | 0.00 | 0.00 | 0.00 | 42 | 1008.7 |
| 20260504201403 | 74 | 283 | 1.7 | 16.5 | 0.00 | 0.00 | 0.00 | 43 | 1008.9 |
| 20260504200703 | 74 | 271 | 2.6 | 16.5 | 0.00 | 0.00 | 0.00 | 43 | 1008.9 |
| 20260504200004 | 74 | 271 | 4.3 | 10.4 | 0.00 | 0.00 | 0.00 | 42 | 1009.0 |
| 20260504195603 | 74 | 273 | 1.7 | 10.4 | 0.00 | 0.00 | 0.00 | 42 | 1009.1 |
| 20260504194903 | 74 | 263 | 3.5 | 11.3 | 0.00 | 0.00 | 0.00 | 43 | 1009.2 |
| 20260504194203 | 75 | 250 | 1.7 | 11.3 | 0.00 | 0.00 | 0.00 | 42 | 1009.2 |
| 20260504193503 | 75 | 236 | 1.7 | 9.6 | 0.00 | 0.00 | 0.00 | 40 | 1009.3 |
| 20260504192803 | 74 | 251 | 1.7 | 9.6 | 0.00 | 0.00 | 0.00 | 43 | 1009.5 |
| 20260504192317 | 73 | 260 | 0.9 | 7.0 | 0.00 | 0.00 | 0.00 | 44 | 1009.7 |
| 20260504191403 | 73 | 269 | 1.7 | 13.0 | 0.00 | 0.00 | 0.00 | 44 | 1010.0 |
| 20260504190703 | 73 | 269 | 0.9 | 9.6 | 0.00 | 0.00 | 0.00 | 44 | 1010.1 |
| 20260504190004 | 74 | 227 | 3.5 | 6.1 | 0.00 | 0.00 | 0.00 | 43 | 1010.1 |
| 20260504185817 | 73 | 241 | 0.9 | 7.0 | 0.00 | 0.00 | 0.00 | 45 | 1010.2 |
| 20260504184903 | 73 | 275 | 4.3 | 8.7 | 0.00 | 0.00 | 0.00 | 46 | 1010.4 |
| 20260504184203 | 73 | 253 | 1.7 | 7.0 | 0.00 | 0.00 | 0.00 | 47 | 1010.5 |
| 20260504183503 | 73 | 169 | 2.6 | 5.2 | 0.00 | 0.00 | 0.00 | 45 | 1010.5 |
| 20260504182803 | 72 | 269 | 1.7 | 9.6 | 0.00 | 0.00 | 0.00 | 45 | 1010.7 |
| 20260504182103 | 72 | 205 | 2.6 | 9.6 | 0.00 | 0.00 | 0.00 | 45 | 1010.8 |
| 20260504181403 | 72 | 242 | 7.0 | 7.0 | 0.00 | 0.00 | 0.00 | 46 | 1010.8 |
| 20260504180703 | 72 | 169 | 0.9 | 6.1 | 0.00 | 0.00 | 0.00 | 45 | 1010.9 |
| 20260504180004 | 71 | 210 | 6.1 | 9.6 | 0.00 | 0.00 | 0.00 | 46 | 1011.1 |
| 20260504175603 | 71 | 174 | 0.9 | 9.6 | 0.00 | 0.00 | 0.00 | 45 | 1011.1 |
| 20260504174903 | 69 | 157 | 0.9 | 7.8 | 0.00 | 0.00 | 0.00 | 49 | 1011.5 |
| 20260504174203 | 69 | 132 | 7.0 | 11.3 | 0.00 | 0.00 | 0.00 | 49 | 1011.6 |
| 20260504173503 | 70 | 143 | 5.2 | 8.7 | 0.00 | 0.00 | 0.00 | 47 | 1011.7 |
| 20260504172803 | 69 | 163 | 2.6 | 8.7 | 0.00 | 0.00 | 0.00 | 46 | 1011.6 |
| 20260504172318 | 69 | 161 | 2.6 | 7.8 | 0.00 | 0.00 | 0.00 | 47 | 1011.6 |
| 20260504171403 | 69 | 213 | 2.6 | 8.7 | 0.00 | 0.00 | 0.00 | 47 | 1011.8 |
| 20260504170703 | 69 | 219 | 6.1 | 8.7 | 0.00 | 0.00 | 0.00 | 48 | 1011.9 |
| 20260504150703 | 62 | 323 | 4.3 | 7.0 | 0.00 | 0.00 | 0.00 | 50 | 1014.5 |
| 20260504140703 | 58 | 322 | 2.6 | 3.5 | 0.00 | 0.00 | 0.00 | 58 | 1015.3 |
| 20260504130704 | 55 | 340 | 1.7 | 2.6 | 0.00 | 0.00 | 0.00 | 59 | 1014.9 |
| 20260504130219 | 55 | 358 | 0.9 | 1.7 | 0.00 | 0.00 | 0.00 | 60 | 1014.7 |
| 20260504110703 | 47 | 32 | 0.0 | 3.5 | 0.00 | 0.00 | 0.00 | 72 | 1015.1 |